Location: Stamford Observatory
(41.1241°N, 73.5498°W)
Time: 23:30:24
(UTC-05:00)

Daily predictions for brighter satellites

Satellite Brightness Start Highest point End
(mag) Time Altitude Azimuth Time Altitude Azimuth Time Altitude Azimuth
SKYMED 2 3.6 18:02:59 10° NNE 18:07:21 90° NNW 18:11:42 10° SSW
Cosmos 44 4.2 18:03:40 10° NW 18:07:54 46° WSW 18:12:00 10° S
COSMOS 2428 4.0 18:03:53 10° N 18:08:06 21° NE 18:12:17 10° E
METEOR-M 4.3 18:04:06 10° SSE 18:09:16 53° ENE 18:14:28 10° N
Cosmos 1536 4.2 18:12:28 10° SE 18:15:13 18° E 18:17:58 10° NE
H-2A R/B 4.3 18:13:41 10° ESE 18:16:02 16° ENE 18:18:24 10° NNE
Meteor 1-25 Rocket 4.5 18:13:16 10° SSW 18:18:51 77° W 18:24:34 10° N
Okean 1 3.3 18:15:43 10° N 18:19:47 75° E 18:23:50 10° SSE
Cosmos 1812 3.2 18:16:44 10° NNW 18:20:34 64° W 18:24:22 10° S
Cosmos 1633 3.0 18:17:29 10° SSE 18:20:56 39° E 18:24:24 10° NNE
Cosmos 1536 Rocket 3.6 18:18:03 10° N 18:22:31 66° E 18:26:57 10° SSE
Cosmos 1818 3.7 18:19:57 10° SW 18:25:24 81° WNW 18:30:54 10° NNE
Cosmos 407 Rocket 3.9 18:21:31 10° SSW 18:26:45 70° WNW 18:32:04 10° NNE
Cosmos 2360 Rocket 2.3 18:22:26 10° NNW 18:28:01 57° ENE 18:33:35 10° SE
Cosmos 2219 Rocket 3.7 18:25:39 10° N 18:29:18 17° NE 18:31:49 13° E
Cosmos 2219 4.1 18:24:39 10° SSE 18:29:26 28° ESE 18:34:14 10° NE
Cosmos 676 Rocket 4.0 18:26:05 10° SSW 18:31:16 89° ESE 18:36:32 10° NNE
Meteor 1-11 Rocket 3.9 18:33:08 10° S 18:38:45 57° E 18:44:32 10° NNE
DELTA 2 R/B (1) 4.1 18:40:42 10° W 18:46:11 56° SSW 18:50:44 15° ESE
Cosmos 1140 Rocket 3.4 18:41:15 10° S 18:46:21 74° ESE 18:51:31 10° NNE
Resurs 01 Rocket 1.8 18:45:01 10° SSE 18:49:15 49° ENE 18:53:31 10° N
Cosmos 1602 3.7 18:45:27 10° S 18:49:19 88° E 18:53:14 10° N
Cosmos 1300 Rocket 3.5 18:46:26 10° S 18:50:49 83° E 18:55:17 10° N
Cosmos 614 Rocket 3.9 18:49:12 10° S 18:54:13 65° ESE 18:59:16 10° NNE
Cosmos 1833 4.4 18:50:41 10° SSW 18:56:23 75° WNW 19:02:04 10° NNE
Abrixas rocket 3.3 18:53:38 10° SSW 18:56:33 28° SE 18:56:51 28° SE
ALOS 2.2 18:52:33 10° SSE 18:57:13 81° ENE 19:01:54 10° N
Cosmos 2181 Rocket 4.0 18:52:14 10° N 18:58:32 87° W 19:04:53 10° S
Spot 2 Rocket 3.4 18:56:35 10° SSE 19:01:35 66° ENE 19:06:38 10° N
USA 229 DEB 4.1 18:56:07 10° NNW 19:02:57 46° NE 19:07:02 24° ESE
USA 229 4.1 18:56:13 10° NNW 19:03:02 46° NE 19:07:06 24° ESE
Cosmos 2333 Rocket 3.2 18:58:24 10° N 19:03:08 25° NE 19:04:11 24° ENE
SL-16 R/B 4.3 18:59:41 10° NW 19:04:27 28° WSW 19:09:12 10° SSW
FREGAT/IRIS 4.3 19:02:06 10° SSW 19:04:58 37° W 19:07:54 10° NNW
Cosmos 2208 Rocket 4.1 18:59:43 10° NNW 19:05:08 60° ENE 19:09:51 13° SSE
Helios 1A 3.4 19:04:17 32° ESE 19:05:20 38° ENE 19:09:11 10° N
Cosmos 1340 3.9 19:03:19 10° NNW 19:06:56 43° W 19:10:31 10° SSW
Resurs 1-3 3.5 19:02:46 10° SSE 19:07:06 65° ENE 19:11:28 10° N
Cosmos 2074 Rocket 3.9 19:07:07 10° S 19:13:17 66° E 19:19:31 10° NNE
Cosmos 1850 Rocket 3.9 19:08:11 10° SSW 19:13:29 82° ESE 19:18:51 10° NNE
Cosmos 2184 Rocket 3.9 19:10:00 10° S 19:16:14 67° E 19:22:27 10° NNE
Envisat 3.8 19:18:30 30° ENE 19:18:30 30° ENE 19:22:28 10° N
Helios 1B rocket 2.6 19:14:09 10° NNE 19:18:13 47° ESE 19:22:10 10° S
FengYun 1-2 T 4.5 19:13:51 10° S 19:19:18 70° WSW 19:24:48 10° NNW
NOSS 8 (H) 4.5 19:17:31 10° SW 19:20:53 76° NW 19:21:51 44° NNE
Intercosmos 24 4.2 19:16:49 10° S 19:20:57 73° E 19:26:54 10° N
Okean 2 3.7 19:18:24 10° N 19:22:00 47° ENE 19:22:00 47° ENE
Tiangong 2 3.8 19:24:04 10° WSW 19:25:28 13° SW 19:26:31 11° SSW
Okean 1 Rocket 3.8 19:21:17 10° SSW 19:25:41 54° W 19:30:06 10° N
SAR-Lupe-1 4.2 19:26:18 57° NNE 19:26:18 57° NNE 19:29:20 10° N
Meteor 1-5 Rocket 4.2 19:20:31 10° S 19:26:28 75° E 19:32:22 10° NNE
FENGYUN 3A 4.3 19:21:51 10° S 19:27:10 58° W 19:32:32 10° NNW
Genesis I 3.2 19:23:24 10° NW 19:27:21 82° WSW 19:28:05 57° SSE
SAR-Lupe-4 3.5 19:30:26 80° S 19:30:36 86° WSW 19:34:12 10° NNW
Cosmos 1892 Rocket 4.4 19:26:25 10° N 19:29:15 34° NNE 19:29:15 34° NNE
Nadezhda 3 Rocket 4.1 19:30:09 10° N 19:36:06 47° ENE 19:36:37 46° E
Gbstr 26 Del rocket 3.2 19:32:50 10° WSW 19:36:31 51° NNW 19:36:52 49° N
GEOS 3 Rocket 4.2 19:39:42 14° NNE 19:44:11 57° NW 19:49:20 10° SW
CZ-2D R/B 3.9 19:43:32 37° SSW 19:44:42 54° W 19:48:27 10° NNW
Cosmos 2285 Rocket 3.9 19:38:25 10° NNW 19:44:54 83° ENE 19:47:50 35° SSE
Cosmos 2154 Rocket 4.0 19:39:01 10° S 19:45:13 59° E 19:51:26 10° NNE
Cosmos 1025 Rocket 3.6 19:41:21 10° NNW 19:45:39 58° W 19:48:41 19° SSW
Cosmos 405 Rocket 4.2 19:42:54 10° N 19:45:01 29° N 19:45:01 29° N
GPS 2-04 Rocket1 4.2 19:43:32 10° SW 19:46:29 31° SSW 19:46:29 31° SSW
H-2A R/B 4.4 19:46:41 10° SSW 19:50:02 33° W 19:53:27 10° NNW
Meteor 2-13 Rocket 4.3 19:45:05 10° S 19:51:08 84° E 19:57:15 10° N
COSMOS 2428 3.0 19:47:14 10° NNW 19:52:51 64° WSW 19:55:38 30° S
Cosmos 2333 4.4 19:48:32 10° NNW 19:54:15 73° WSW 19:56:21 40° S
Cosmos 2237 Rocket 2.8 19:51:34 10° NNW 19:55:53 41° NNE 19:55:53 41° NNE
NOSS 0 Rocket 3.8 20:02:27 10° NNW 20:08:24 78° NE 20:08:24 78° NE
Cosmos 2219 4.3 20:07:54 10° SW 20:13:21 43° WNW 20:18:49 10° NNE
Cosmos 2219 Rocket 2.2 20:08:19 10° NNW 20:13:35 74° WNW 20:13:35 74° WNW
SL-16 R/B 4.0 20:25:15 10° N 20:27:19 21° N 20:27:19 21° N
Cosmos 2333 Rocket 3.3 20:42:08 10° NW 20:46:14 41° WNW 20:46:14 41° WNW
NOSS 3-1 (A) 4.5 20:59:18 10° NW 21:04:58 56° NNW 21:04:58 56° NNW
ATLAS 2AS CENTAUR R/B 4.3 21:05:28 10° NNW 21:10:18 30° N 21:10:18 30° N
